CZ-6A DEB

Satellite information

Favourite Embed

Satellite Type and Status

DEBRISIN ORBIT

Key statistics

Satellite CZ-6A DEB at a glance.

Uptime

1081

Days in orbit

Revolutions

≈ 14.4

Per day

Orbit

SSO

Sun Synchronous Orbit

Inclination

98.8

Latest

Satellite identification and parameters

Extended collection of information and parameters for CZ-6A DEB.

Object identification

Identified? True

Debris? True

Object name: CZ-6A DEB

International designator: 2022-151RM

Object number (NORAD): 54924

Object ID (CCSDS): 54924

Country: PEOPLES REPUBLIC OF CHINA (PRC)

Current information (Y/N): Y

RCS size: SMALL

Orbital parameters

Period: 100.15 minutes

Inclination: 98.7516 deg

SMA: 7143.777 km

Apoapsis: 792.72 km

Periapsis: 738.564 km

RAAN: 330.6151 deg

Eccentricy: 0.00379045

Argument of periapsis: 279.6544 deg

Mean anomaly: 80.0361 deg

Mean motion: 14.37841147 rev/day

Mean motion (dot): 0.00005755 rev/day2

B* drag term: 0.0019068729 1/REarth

Two-line elements (TLE)

Creation date: Oct. 27, 2025, 2:46 a.m.

Reference frame: TEME

Reference center: EARTH

Epoch: Oct. 26, 2025, 9:35 p.m. UTC

TLE line 0: 0 CZ-6A DEB

TLE line 1: 1 54924U 22151RM 25299.89994065 .00005755 00000-0 19069-2 0 9991

TLE line 2: 2 54924 98.7516 330.6151 0037905 279.6544 80.0361 14.37841147153795

Live tracking on map

Real-time ground track for satellite CZ-6A DEB.

In-orbit conjunctions

A list of the most updated potential collisions computed for object CZ-6A DEB.

Target Orbit TCA Probability of collision Miss distance Type
CZ-4 DEB SSO 2024-09-27 03:12:54 0.0002435182 239.0 (m) DEBRIS
SL-8 R/B LEO 2024-08-28 22:40:05 0.0002544951 401.0 (m) ROCKET BODY

Associated space launch

Chinese satellite reported for atmospheric/ocean/environmental/spatial parameter research purposes, details TBD.

CZ-6A DEB was lifted into orbit during the mission ‘Long March 6A | Yunhai 3’, on board a Long March 6A space rocket.

The launch took place on Nov. 11, 2022, 10:52 p.m. from Launch Complex 9A.

For more information about the launch, click the button.

Launch to space Long March 6A | Yunhai 3
Long March 6A | Yunhai 3

Agency: N/A

Status: Launch Successful

Launch date: Nov. 11, 2022, 10:52 p.m. UTC

Rocket: Long March 6A

Launch pad: Launch Complex 9A

Location: Taiyuan Satellite Launch Center, People's Republic of China

...

Latest news about this satellite

There are no fresh news available about this satellite. Check back as we update our databases every day.


Newsletter sign-up

Weekly statistics, charts and insights to help you stay on top of the space industry.